ZHONGXING-10

Last updated on Sun Apr 12 2026 00:02:52 GMT+0000 (Coordinated Universal Time)

1 37677U 11026A 26101.53767747 -.00000186 00000+0 00000+0 0 9990 2 37677 0.8733 84.9195 0002966 317.8080 76.1185 1.00269738 54338
UTC large
Height (km)
Speed (km/s)
/
Latitude / Longitude
Inclination (degrees)
Orbital Period (minutes)
Azimuth
Elevation
Range (km)
Doppler Factor

Next 0 passes for location: London (51.5072 / 0.1276)

Sorry there are no passes over London.
ZHONGXING-10